[[{"header":{"parameterUnit":"m.s-1","parameterCategory":1,"la1":30.2991,"la2":30.254,"lo1":-89.0895,"lo2":-89.0444,"dy":0.0017,"dx":0.0017,"nx":28,"ny":28,"refTime":"2024-04-17T21:00:00:Z","depth":0,"parameterNumber":2,"parameterNumberName":"U-component_of_WINDS"},"data":[0,0,0,0,0,0,0,0,0,0,0,0,0,0,0,0,0,0,0,0,0,0,0,0,0,0,0,0,0,0,0,0,0,0,0,0,0,0,0,0,0,0,0,0,0,0,0,0,0,0,0,0,0,0,0,0,0,0,0.3654,0.3654,0,0.3658,0.3658,0.3658,0.3632,0.3631,0.363,0.3629,0.3635,0.3635,0.3636,0,0,0,0,0,0,0,0,0,0,0,0,0,0.3623,0.3624,0.3654,0.3654,0.3654,0.3658,0.3658,0.3658,0.3632,0.3631,0.363,0.3629,0.3634,0.3635,0.3636,0,0,0,0,0,0,0,0,0,0,0,0,0,0.3633,0.3624,0.3654,0.3641,0.364,0.3658,0.3658,0.3658,0.3632,0.3631,0.363,0.3629,0.3634,0.3635,0.3636,0.3667,0,0,0.364,0.3641,0,0,0,0,0,0,0,0,0.3632,0.3634,0.3643,0.3642,0.3641,0.3643,0.3649,0.3661,0.3632,0.3635,0.3629,0.3628,0.3638,0.3639,0.3643,0.3667,0.3668,0.364,0.3641,0.3642,0.3642,0,0,0,0,0,0,0,0.3632,0.3634,0.3655,0.3643,0.3642,0.3635,0.3636,0.3651,0.3643,0.3635,0.3633,0.3634,0.3638,0.3641,0.3643,0.3668,0.364,0.3642,0.3642,0.3643,0.3718,0.372,0,0,0,0,0,0,0.3632,0.3633,0.3655,0.3656,0.3634,0.3637,0.3637,0.3644,0.3643,0.3642,0.3635,0.3632,0.364,0.3641,0.3643,0.3678,0.3642,0.3643,0.3644,0.3717,0.3719,0.372,0,0,0,0,0,0,0.3632,0.3635,0.3655,0.3644,0.3646,0.3639,0.3646,0.3644,0.3648,0.3643,0.3641,0.364,0.3639,0.3641,0.3661,0.3678,0.3644,0.3645,0.3716,0.3718,0.3719,0.3751,0,0,0,0,0,0,0.3631,0.3635,0.3646,0.3644,0.3647,0.3674,0.3647,0.3645,0.365,0.3647,0.3647,0.3646,0.3638,0.366,0.3663,0.3679,0.3646,0.3714,0.3717,0.3719,0.3748,0.3753,0.3758,0,0,0,0,0,0.363,0.3655,0.3647,0.365,0.3661,0.3675,0.3676,0.3666,0.3652,0.3663,0.366,0.3646,0.3676,0.3662,0.3665,0.3683,0.3713,0.3716,0.3719,0.3746,0.3752,0.3758,0,0,0,0,0,0,0.3658,0.3654,0.3645,0.367,0.3673,0.367,0.3684,0.3673,0.368,0.3677,0.3665,0.3665,0.3688,0.3687,0.3671,0.3712,0.3692,0.3696,0.3712,0.3718,0.3723,0.3722,0.3647,0,0,0,0,0,0.3668,0.3679,0.3675,0.3697,0.3699,0.3692,0.3697,0.3689,0.3692,0.3693,0.3691,0.3694,0.3704,0.3711,0.372,0.3748,0.3748,0.3762,0.3767,0.3771,0.3774,0.3789,0.3795,0.3729,0.3729,0.3729,0,0,0.3686,0.3686,0.3694,0.3703,0.3704,0.3716,0.3693,0.3707,0.3716,0.3695,0.3714,0.3713,0.3716,0.374,0.3751,0.3741,0.3792,0.3774,0.3778,0.3778,0.3792,0.3798,0.3804,0.3731,0.3731,0.373,0,0,0.3727,0.3728,0.3746,0.3748,0.375,0.3745,0.375,0.3749,0.3747,0.3767,0.3751,0.3762,0.378,0.3783,0.3786,0.3829,0.3817,0.3832,0.3858,0.3872,0.3877,0.3882,0.3897,0.3902,0.3835,0.3836,0.3836,0,0.375,0.3768,0.3757,0.3772,0.3777,0.3759,0.3778,0.378,0.3786,0.3789,0.3778,0.38,0.38,0.3825,0.3835,0.3839,0.3844,0.3832,0.3878,0.3882,0.3886,0.39,0.3906,0.3837,0.3837,0.3837,0.3837,0,0.3796,0.3809,0.3824,0.3829,0.3835,0.3852,0.3844,0.3852,0.3844,0.3841,0.3861,0.3861,0.387,0.3875,0.3867,0.3899,0.3892,0.388,0.3859,0.3894,0.3907,0.3913,0.384,0.3839,0.3839,0.3838,0,0,0.3853,0.3853,0.3859,0.3861,0.3863,0.3873,0.3889,0.3898,0.3905,0.3909,0.3923,0.3939,0.3927,0.3931,0.3923,0.3936,0.397,0.3922,0.3922,0.393,0.4005,0.4014,0.402,0.3962,0.3963,0.3964,0.4004,0,0.3892,0.392,0.3912,0.394,0.3951,0.3935,0.3949,0.3952,0.395,0.3959,0.3957,0.3968,0.3951,0.3954,0.3966,0.3963,0.3985,0.396,0.3975,0.3975,0.3974,0.4027,0.4037,0.4075,0.4009,0.401,0.4011,0,0.3942,0.3948,0.3977,0.3978,0.3982,0.3995,0.4003,0.4012,0.4015,0.4013,0.4018,0.4008,0.4024,0.4004,0.4027,0.4011,0.4016,0.4016,0.4017,0.4017,0.3995,0.4029,0.4087,0.4092,0.4019,0.4018,0.4018,0,0.398,0.3996,0.4016,0.4019,0.4019,0.4029,0.403,0.4032,0.4038,0.4045,0.4048,0.4057,0.4062,0.4069,0.4062,0.4048,0.4085,0.4065,0.4083,0.4084,0.4091,0.4091,0.415,0.4096,0.4096,0.4096,0.4096,0,0.4024,0.4042,0.4033,0.4045,0.4065,0.4056,0.4076,0.4075,0.4078,0.4089,0.4076,0.4088,0.4078,0.4088,0.4083,0.4103,0.4105,0.4103,0.4101,0.4104,0.4104,0.4107,0.4104,0.4097,0.4097,0.4097,0.4096,0,0.407,0.4064,0.4084,0.4084,0.4084,0.4099,0.4099,0.411,0.4107,0.4122,0.4125,0.412,0.4132,0.4126,0.4138,0.4135,0.416,0.4155,0.4159,0.4157,0.4176,0.4174,0.4239,0.4247,0.4188,0.4189,0.4189,0,0.4098,0.4111,0.4113,0.412,0.4121,0.4133,0.4139,0.413,0.4137,0.4142,0.4153,0.4164,0.4172,0.4192,0.4189,0.4199,0.4194,0.4216,0.4195,0.4197,0.4193,0.4192,0.4194,0.422,0.422,0.4221,0.4221,0,0.4148,0.4145,0.4154,0.4163,0.417,0.4177,0.4182,0.4188,0.418,0.4188,0.42,0.4207,0.422,0.423,0.4239,0.424,0.4229,0.4228,0.4233,0.4235,0.4237,0.4236,0.4169,0.4227,0.4226,0.4226,0.4225,0.4225,0.4185,0.4197,0.42,0.421,0.4214,0.4219,0.423,0.4228,0.4238,0.4248,0.4242,0.4256,0.426,0.427,0.4273,0.4284,0.4275,0.4282,0.4283,0.4285,0.4287,0.4236,0.4285,0.4285,0.4285,0.4285,0.4285,0,0.4234,0.4236,0.4246,0.4254,0.4262,0.4252,0.4258,0.4266,0.4278,0.4282,0.4291,0.4305,0.4316,0.4314,0.4324,0.4333,0.4329,0.4336,0.4335,0.4335,0.4295,0.429,0.434,0.434,0.434,0.434,0.434,0.434,0.4261,0.428,0.4277,0.4298,0.4299,0.4313,0.4317,0.4322,0.4325,0.4342,0.435,0.435,0.4352,0.4362,0.4372,0.4371,0.4375,0.4384,0.4382,0.4344,0.4338,0.4333,0.4328,0.4385,0.4385,0.4421,0.4422,0.4422]},{"header":{"parameterUnit":"m.s-1","parameterCategory":1,"la1":30.2991,"la2":30.254,"lo1":-89.0895,"lo2":-89.0444,"dy":0.0017,"dx":0.0017,"nx":28,"ny":28,"refTime":"2024-04-17T21:00:00:Z","depth":0,"parameterNumber":3,"parameterNumberName":"V-component_of_WINDS"},"data":[0,0,0,0,0,0,0,0,0,0,0,0,0,0,0,0,0,0,0,0,0,0,0,0,0,0,0,0,0,0,0,0,0,0,0,0,0,0,0,0,0,0,0,0,0,0,0,0,0,0,0,0,0,0,0,0,0,0,2.6246,2.6247,0,2.6291,2.6292,2.6292,2.628,2.6279,2.6278,2.6277,2.6319,2.6321,2.6323,0,0,0,0,0,0,0,0,0,0,0,0,0,2.6146,2.6148,2.6246,2.6247,2.6247,2.6291,2.6292,2.6292,2.628,2.6279,2.6278,2.6277,2.6319,2.6321,2.6323,0,0,0,0,0,0,0,0,0,0,0,0,0,2.619,2.6148,2.6246,2.6247,2.6247,2.6291,2.6292,2.6292,2.628,2.6279,2.6278,2.6277,2.6318,2.6321,2.6323,2.6368,0,0,2.6332,2.6334,0,0,0,0,0,0,0,0,2.6187,2.6193,2.6246,2.6247,2.6247,2.6279,2.6271,2.6318,2.6281,2.6268,2.6277,2.6276,2.6307,2.631,2.6321,2.637,2.6372,2.6333,2.6334,2.6336,2.6336,0,0,0,0,0,0,0,2.6184,2.6191,2.6264,2.6247,2.6248,2.6243,2.6248,2.628,2.6294,2.6269,2.6268,2.6274,2.6307,2.6319,2.6322,2.6372,2.6332,2.6335,2.6337,2.6338,2.6459,2.646,0,0,0,0,0,0,2.6181,2.6189,2.6262,2.6265,2.6214,2.6246,2.6252,2.627,2.6294,2.6296,2.6275,2.6273,2.6314,2.6319,2.6324,2.6377,2.6336,2.6338,2.634,2.6458,2.6459,2.6461,0,0,0,0,0,0,2.6179,2.6188,2.6261,2.6227,2.6236,2.6249,2.627,2.6271,2.6284,2.6298,2.63,2.6285,2.6314,2.632,2.6357,2.6379,2.634,2.6342,2.6456,2.6458,2.646,2.6485,0,0,0,0,0,0,2.6176,2.6187,2.6205,2.6227,2.6238,2.6295,2.6271,2.6273,2.6289,2.6287,2.6308,2.631,2.6313,2.6353,2.636,2.6382,2.6344,2.6454,2.6457,2.6459,2.6482,2.6488,2.6492,0,0,0,0,0,2.6173,2.621,2.6206,2.6215,2.6261,2.6296,2.6302,2.6305,2.6291,2.6309,2.6318,2.631,2.6375,2.6357,2.6365,2.6388,2.6453,2.6456,2.6459,2.648,2.6487,2.6492,0,0,0,0,0,0,2.6188,2.6212,2.6209,2.6255,2.6274,2.6294,2.6316,2.6312,2.6334,2.6331,2.6333,2.6338,2.6377,2.6386,2.6365,2.6432,2.6412,2.6417,2.6425,2.6431,2.6436,2.6433,2.6347,0,0,0,0,0,2.6197,2.6225,2.6244,2.6282,2.6292,2.6303,2.6318,2.6319,2.6338,2.6346,2.6358,2.6375,2.64,2.6416,2.6439,2.6483,2.6487,2.6503,2.6508,2.6512,2.6516,2.654,2.6547,2.6472,2.6472,2.6472,0,0,2.6215,2.6232,2.6249,2.6286,2.6301,2.6328,2.6309,2.6339,2.6359,2.635,2.6387,2.6396,2.6416,2.6457,2.6475,2.6466,2.6538,2.6516,2.652,2.6522,2.6544,2.6551,2.6558,2.6474,2.6474,2.6473,0,0,2.6262,2.6278,2.6312,2.6328,2.6351,2.6358,2.6366,2.6387,2.6393,2.643,2.6424,2.6447,2.6489,2.6504,2.6516,2.6569,2.6562,2.6577,2.6603,2.6626,2.6632,2.6637,2.6656,2.6663,2.6581,2.6581,2.6581,0,2.6282,2.6325,2.6329,2.636,2.6376,2.637,2.6404,2.6418,2.6447,2.6457,2.6446,2.6499,2.6512,2.6556,2.6569,2.658,2.6588,2.6574,2.6631,2.6636,2.6641,2.6659,2.6666,2.6582,2.6582,2.6582,2.6582,0,2.6347,2.6377,2.6401,2.6431,2.645,2.6481,2.649,2.6507,2.6507,2.6514,2.6552,2.6567,2.6593,2.6604,2.6603,2.6648,2.6641,2.6631,2.661,2.665,2.6667,2.6674,2.6585,2.6584,2.6584,2.6583,0,0,2.6405,2.6438,2.6447,2.646,2.6486,2.6508,2.6539,2.6566,2.6581,2.6601,2.6627,2.6663,2.6653,2.6668,2.6668,2.6689,2.673,2.6676,2.6676,2.6685,2.678,2.6788,2.6796,2.6725,2.6726,2.6727,2.6778,0,2.6455,2.6512,2.6517,2.6567,2.6594,2.6589,2.6616,2.6633,2.6641,2.6664,2.6672,2.6698,2.6683,2.6692,2.6712,2.672,2.6749,2.6717,2.6748,2.6749,2.6743,2.6804,2.6813,2.686,2.6785,2.6786,2.6786,0,2.6521,2.6545,2.6598,2.662,2.6631,2.6656,2.6681,2.6703,2.6723,2.6727,2.6743,2.6741,2.6772,2.675,2.6792,2.677,2.6783,2.6789,2.6791,2.6794,2.677,2.6809,2.6875,2.6882,2.6797,2.6796,2.6795,0,2.6558,2.6603,2.6641,2.6653,2.6679,2.6696,2.6707,2.6726,2.6742,2.6763,2.6773,2.6798,2.6811,2.6829,2.6833,2.6817,2.6874,2.6853,2.6878,2.6878,2.689,2.6889,2.6959,2.6898,2.6898,2.6898,2.6898,0,2.6613,2.6646,2.6658,2.6682,2.6718,2.6723,2.6758,2.6768,2.6784,2.6808,2.6804,2.6827,2.6831,2.6854,2.6857,2.6891,2.6896,2.69,2.69,2.69,2.69,2.6909,2.6906,2.69,2.69,2.6899,2.6899,0,2.6661,2.6671,2.6712,2.6733,2.674,2.6765,2.6783,2.6805,2.6812,2.6843,2.685,2.6861,2.6888,2.6894,2.6925,2.6927,2.6967,2.6964,2.6961,2.6961,2.6985,2.6983,2.7063,2.7074,2.7006,2.7007,2.7007,0,2.6696,2.6721,2.6746,2.6763,2.6775,2.6802,2.6819,2.6824,2.6841,2.6865,2.6884,2.691,2.6932,2.6975,2.6984,2.7008,2.7006,2.7032,2.7009,2.7009,2.7006,2.7005,2.7007,2.7037,2.7037,2.7038,2.7038,0,2.6756,2.676,2.6785,2.6812,2.6832,2.6853,2.6873,2.6887,2.6894,2.6914,2.6942,2.6959,2.6991,2.7017,2.7041,2.7051,2.7046,2.7046,2.7053,2.7053,2.705,2.7052,2.6973,2.7044,2.7043,2.7043,2.7043,2.7042,2.6798,2.6821,2.6842,2.687,2.6886,2.6905,2.6926,2.6937,2.6961,2.6989,2.699,2.7021,2.7038,2.707,2.7082,2.7105,2.7096,2.7106,2.7109,2.7111,2.7114,2.7047,2.7109,2.7109,2.7109,2.7108,2.7108,0,2.6858,2.6872,2.6898,2.6927,2.6949,2.6943,2.6965,2.6983,2.7011,2.7029,2.705,2.7082,2.7108,2.712,2.7144,2.716,2.7159,2.7167,2.7166,2.7168,2.712,2.7111,2.7168,2.7168,2.7168,2.7168,2.7168,2.7168,2.6892,2.693,2.6936,2.6982,2.6994,2.7026,2.7038,2.7055,2.707,2.7106,2.7128,2.7136,2.7151,2.7177,2.72,2.7203,2.7212,2.7221,2.7223,2.7177,2.7171,2.7165,2.7158,2.7223,2.7223,2.7269,2.7269,2.727]}]]